Theta_e
335 337 341 340 344 340 339 336 336 336 339 337 338 337 338 338 343 350 333 330 331 335 330 322 324 326 327 329 330 329 328 328 325 321 319 319 320 322 321 319 319 320 320 320 320 320 320 319 319
338 339 340 341 342 339 339 337 339 339 339 339 337 338 337 343 338 339 331 331 332 335 338 338 324 327 328 330 330 329 328 328 328 323 319 318 320 323 322 321 321 320 321 321 321 321 322 323 323
332 339 341 341 340 341 341 338 338 336 335 336 333 334 339 340 336 334 331 330 333 334 337 341 323 327 329 330 330 330 328 327 327 326 323 321 320 322 324 323 323 323 323 322 322 322 323 324 325
335 338 341 339 339 339 340 340 335 337 335 333 333 337 340 339 336 335 334 331 332 334 337 324 323 326 329 330 330 330 329 327 326 326 323 322 320 321 324 326 325 325 325 325 325 325 325 325 326
333 336 337 339 339 339 338 339 335 337 336 334 334 338 339 338 337 337 334 331 331 333 337 325 322 324 326 328 330 331 330 330 329 328 326 323 321 320 322 326 327 327 327 327 328 327 326 327 327
331 335 336 336 339 337 339 339 336 335 335 335 335 335 338 339 337 337 333 331 331 332 334 337 321 322 323 325 328 330 330 331 330 329 330 329 327 322 319 322 327 329 329 329 329 328 328 327 326
333 334 335 337 335 337 338 339 339 335 335 335 335 337 339 340 337 335 333 332 332 334 336 340 341 334 322 322 324 326 328 330 332 331 331 331 330 327 323 320 322 324 328 329 330 330 329 327 326
330 335 333 337 335 336 337 337 338 336 335 335 336 338 340 339 337 338 336 334 333 337 338 339 339 341 342 341 340 337 327 329 329 333 332 332 331 326 330 329 321 325 328 328 329 330 330 330 324
330 333 333 335 337 335 336 337 336 338 337 336 337 336 338 340 339 338 337 337 337 338 339 339 340 340 341 341 342 341 332 330 328 335 336 335 334 334 328 340 336 333 330 330 329 329 330 330 325
331 332 332 332 333 337 336 336 336 339 340 339 337 337 338 340 340 340 339 339 339 340 341 343 348 346 345 344 344 342 340 335 330 328 329 331 334 338 339 338 337 337 335 330 328 328 329 330 327
330 332 332 332 332 333 335 336 336 339 339 338 339 338 339 340 340 341 341 341 342 345 346 345 343 344 344 344 342 339 339 337 332 332 331 335 328 328 340 339 337 337 338 334 326 333 330 328 328
330 331 331 332 332 334 336 335 337 337 338 338 338 338 339 340 341 345 346 346 345 343 342 342 342 345 345 342 340 339 338 334 331 337 332 331 337 337 341 339 337 333 334 334 337 335 332 331 330
331 332 333 333 332 335 334 336 337 338 337 339 338 339 340 343 346 342 331 344 343 343 342 341 344 340 343 342 341 340 340 339 333 338 336 336 337 339 338 340 339 337 334 333 331 332 331 331 331
331 334 334 334 334 336 337 339 339 339 339 340 340 341 344 346 345 334 338 344 345 343 341 343 343 345 343 340 342 341 340 339 338 338 340 338 338 339 340 339 337 337 336 334 333 331 331 330 330
332 335 333 335 335 336 333 335 342 341 341 341 343 344 344 343 343 344 345 346 344 341 342 345 341 342 340 341 340 340 339 338 338 338 341 335 337 336 336 336 338 336 335 336 334 332 331 330 329
333 335 335 334 333 337 334 340 340 340 339 340 340 341 344 343 343 344 345 345 342 342 341 342 343 342 341 340 339 339 337 337 338 338 339 336 337 335 334 334 332 329 330 332 333 332 331 330 329
333 332 335 335 334 337 340 343 340 339 339 341 343 344 345 346 347 346 345 342 341 341 340 339 339 339 340 339 338 337 336 339 338 335 334 334 335 333 333 333 331 331 330 330 328 328 326 325 325
334 333 333 333 335 336 339 341 339 337 338 338 342 344 345 345 346 345 340 339 339 339 339 339 340 338 338 338 336 335 335 337 336 334 332 331 331 330 328 327 326 324 324 325 324 325 325 325 324
331 332 333 333 334 336 339 340 339 337 337 339 341 343 344 343 341 341 341 338 339 338 336 334 333 331 329 331 331 331 332 333 331 331 330 326 325 324 325 326 326 324 325 324 324 323 323 323 321
331 336 337 334 334 336 337 338 338 337 338 339 339 341 342 342 341 340 338 337 335 333 332 331 329 328 325 324 324 324 324 327 326 324 324 322 320 321 320 319 320 320 320 320 321 321 320 319 319
334 332 332 335 334 336 338 338 338 338 338 338 339 340 340 339 337 337 335 334 332 331 330 328 327 326 325 319 323 323 322 322 322 322 321 319 318 316 316 316 316 316 316 316 316 316 315 317 317
333 331 331 332 335 338 337 341 340 339 340 339 339 339 337 334 334 333 332 331 328 325 325 326 325 325 323 323 322 321 320 319 318 318 317 316 317 316 316 316 314 314 316 315 314 314 314 313 316
332 332 333 333 335 337 337 340 339 335 340 339 337 335 334 332 332 331 329 327 325 324 323 324 324 323 323 322 321 319 318 317 316 316 316 316 316 316 316 315 314 314 313 314 313 313 314 315 316
332 335 336 340 337 342 338 341 340 336 339 338 336 334 333 331 331 329 327 325 324 324 323 323 323 322 322 321 319 318 316 317 316 316 315 315 315 315 316 314 314 313 313 313 313 313 314 315 315
334 335 338 344 341 341 337 333 341 337 337 337 336 334 332 331 329 328 327 324 323 325 324 322 322 321 320 319 318 316 315 315 315 315 315 315 315 315 314 314 314 314 314 314 314 314 314 315 314
330 334 336 337 333 331 336 340 340 337 336 335 334 334 332 330 329 327 326 325 324 325 324 322 321 321 318 318 316 316 315 315 315 314 315 315 315 313 315 315 315 314 314 314 314 314 313 313 314
331 335 334 334 335 336 338 339 337 337 337 334 334 333 331 330 328 326 325 326 325 324 324 322 321 319 318 316 315 315 313 313 314 313 313 314 314 315 315 315 314 314 312 311 311 313 313 312 312
333 331 332 336 335 332 334 340 343 338 338 336 334 333 332 330 328 326 324 324 325 324 322 322 320 319 317 315 315 314 313 313 313 315 316 315 314 314 314 314 314 311 311 311 311 312 312 312 313
333 336 333 334 337 334 332 339 334 337 337 336 334 332 332 329 327 325 323 324 324 323 321 321 319 318 316 315 315 314 313 313 315 316 315 314 314 314 314 313 312 313 312 311 311 312 312 313 312
331 331 332 334 334 334 333 339 335 335 335 335 333 331 331 329 327 325 323 324 324 322 321 320 319 317 315 315 315 314 313 315 316 315 315 315 315 314 314 312 311 311 312 312 312 312 311 311 312
Wind_Speed
7 6 5 10 7 4 16 21 19 16 17 16 8 13 7 18 17 4 15 10 12 11 11 10 8 7 6 5 4 4 3 3 3 3 4 4 4 3 3 4 4 6 7 9 10 10 12 13 14
5 6 8 6 6 14 14 20 18 14 14 11 6 7 14 15 16 16 15 11 13 11 10 10 8 6 5 5 4 3 3 3 3 4 6 6 6 4 2 3 2 2 3 5 6 7 9 10 13
7 10 14 8 11 14 15 18 14 17 15 11 16 14 15 13 11 11 12 14 13 10 8 11 7 5 4 4 3 4 4 5 5 6 7 7 6 5 5 4 3 2 2 2 4 5 8 10 13
10 12 15 6 16 14 15 11 19 16 21 12 16 16 15 12 9 11 13 13 10 10 8 5 7 6 4 4 4 4 5 6 7 8 9 9 8 8 8 7 6 6 6 5 5 6 7 9 12
12 11 4 12 18 14 12 12 13 17 19 19 19 17 17 12 12 12 13 12 10 8 7 6 7 7 7 7 7 7 8 8 9 9 9 10 11 12 12 11 10 9 9 9 8 8 8 10 11
21 10 7 8 17 18 11 9 15 18 17 19 20 18 16 11 11 10 11 11 8 7 6 6 7 8 9 9 9 9 9 10 10 10 11 11 12 13 15 16 14 13 13 13 11 10 11 12 12
16 2 11 19 12 18 9 18 15 17 18 11 16 18 14 12 11 11 10 9 7 5 5 2 5 8 11 10 12 13 13 13 11 12 12 12 13 14 17 18 18 18 18 17 15 14 13 13 13
15 8 8 22 11 17 11 11 10 18 13 11 5 15 13 14 12 11 10 8 6 4 1 1 1 5 8 16 14 14 17 15 20 14 12 12 13 15 13 15 17 16 18 19 19 17 14 15 15
8 4 4 16 18 14 31 8 11 5 16 13 13 17 19 16 13 11 9 6 5 2 2 3 5 8 10 10 11 19 16 16 14 14 13 11 12 15 29 16 12 19 23 23 22 19 18 17 16
13 4 16 10 11 16 6 11 7 10 36 18 14 17 19 16 12 9 6 4 2 6 6 6 8 10 11 13 11 15 15 14 20 19 21 19 16 19 19 13 15 17 18 20 25 22 22 16 10
4 10 5 9 9 8 7 13 7 21 13 15 27 16 16 14 10 6 1 11 9 11 7 10 10 10 12 10 12 15 15 21 15 13 13 19 24 21 17 13 14 13 13 17 17 20 13 6 8
11 8 4 7 4 3 5 9 14 17 14 11 16 13 13 11 3 19 19 28 17 10 12 11 12 9 9 10 10 12 14 10 8 7 15 22 16 17 14 13 13 12 14 12 13 9 11 9 12
9 3 1 3 6 5 1 15 15 14 10 11 13 12 12 14 13 11 11 12 11 10 12 12 11 9 12 12 9 7 7 8 10 11 14 19 17 15 16 13 12 12 13 12 13 12 14 12 14
3 1 5 4 9 7 30 24 18 11 11 12 14 16 15 12 12 6 9 5 9 11 12 12 11 11 11 12 11 9 10 10 12 13 15 18 13 13 12 12 13 11 13 12 13 15 16 17 19
5 27 22 8 5 12 27 22 13 13 16 18 20 17 14 11 8 12 8 8 10 11 12 13 12 12 14 13 13 12 13 13 14 14 13 20 16 15 14 12 11 12 16 13 15 16 18 19 21
7 11 12 10 7 41 33 18 10 15 20 18 17 13 15 10 9 9 9 9 11 13 15 13 13 12 14 15 16 13 13 16 13 16 15 15 14 15 15 16 17 21 20 17 16 17 16 20 21
23 2 20 11 15 12 20 15 13 13 16 16 14 14 13 10 9 10 9 10 12 15 16 15 14 15 16 15 14 15 16 11 14 15 15 15 12 13 14 14 14 13 13 15 18 22 23 26 31
16 13 3 13 10 12 14 14 10 14 19 15 15 14 14 12 12 11 11 12 13 14 15 15 12 14 15 15 16 15 15 16 11 10 10 11 13 13 15 15 18 19 17 18 17 17 15 12 15
5 4 8 6 3 7 11 11 11 10 16 17 18 17 16 16 12 11 11 11 13 14 15 16 16 18 18 17 18 17 16 12 14 13 13 15 15 16 15 12 15 16 16 17 17 14 16 17 17
4 23 20 5 5 6 11 11 11 13 15 18 17 16 13 11 11 11 11 11 13 15 15 17 18 20 21 17 18 17 15 13 13 17 16 17 17 15 14 16 14 18 15 14 13 13 15 15 15
20 11 4 2 6 7 21 9 6 16 18 17 15 12 11 11 12 11 12 12 13 15 17 18 18 19 22 20 19 18 15 13 14 14 16 18 17 16 14 14 14 14 13 12 16 15 14 15 15
9 9 6 3 11 6 15 5 6 3 14 13 13 12 13 12 12 11 11 13 15 16 15 17 18 20 21 23 21 21 18 18 17 16 16 14 13 13 14 14 15 14 12 13 13 12 12 12 13
9 10 8 5 14 11 14 2 3 11 16 11 12 11 12 12 11 10 12 13 15 16 15 15 16 18 20 21 22 21 21 17 15 15 15 14 13 14 15 16 16 16 13 15 14 14 13 10 10
7 5 4 19 9 6 21 14 8 7 7 10 12 10 9 9 9 10 12 14 15 14 14 14 16 18 20 21 22 22 19 18 17 18 16 16 14 14 18 18 18 16 16 16 16 15 12 14 12
13 9 2 5 4 4 7 3 10 8 8 11 10 8 7 6 10 11 13 15 15 14 15 15 16 18 20 21 22 21 19 17 17 17 16 16 15 16 20 18 16 15 17 16 16 13 13 12 14
15 8 8 14 11 9 16 5 7 12 13 12 9 7 6 8 10 12 13 14 14 13 15 15 17 16 23 21 20 17 16 14 14 16 15 16 16 16 18 17 18 20 19 19 18 17 17 16 17
10 6 11 9 17 10 4 11 12 9 11 11 9 6 6 6 7 10 13 13 13 14 12 15 16 19 18 19 18 15 16 18 17 16 18 16 16 17 17 19 20 21 22 21 19 16 16 16 17
4 6 8 6 7 12 6 14 7 10 10 8 7 5 5 4 6 11 12 12 13 13 13 13 15 15 16 17 14 18 15 15 16 15 17 18 17 16 20 19 19 23 19 19 18 17 16 17 18
4 2 3 4 5 7 8 7 6 8 11 8 5 5 4 2 8 11 11 12 12 13 12 13 14 16 17 16 12 16 17 16 15 16 17 17 16 17 17 19 22 17 19 20 19 19 17 19 21
3 6 4 7 7 3 7 4 5 7 13 9 6 4 5 4 7 10 11 11 12 12 12 13 14 15 16 14 13 15 16 14 14 17 17 17 17 16 18 22 20 17 19 18 21 19 19 19 20
Wind_Direction
359 350 323 281 249 124 66 59 54 48 63 65 68 36 47 31 18 101 137 129 140 150 162 163 158 149 139 133 128 130 132 137 147 156 160 161 148 132 119 119 98 85 76 67 56 48 47 43 37
294 272 272 255 279 86 72 74 62 66 100 105 80 107 53 63 62 97 133 139 143 148 155 160 163 159 153 148 154 165 178 187 193 196 200 202 198 192 178 172 149 93 73 66 52 37 33 28 23
302 277 260 242 57 60 78 82 80 74 59 76 87 59 56 92 93 94 127 134 142 141 148 191 181 178 167 167 189 205 213 217 218 221 222 231 233 226 222 218 226 263 305 354 3 359 358 1 3
315 269 258 124 75 67 90 88 66 74 89 62 71 91 81 77 83 119 130 137 140 141 161 194 194 198 197 203 219 234 244 243 237 234 233 238 245 250 248 242 243 253 272 288 300 312 327 339 345
270 322 307 87 93 79 85 97 83 94 69 77 82 91 91 93 107 119 134 140 142 147 175 211 208 217 222 222 226 237 246 254 254 249 246 242 242 246 251 252 249 254 262 275 286 299 308 314 325
278 121 333 111 83 82 79 83 95 93 89 104 90 83 94 115 120 123 133 140 143 147 153 225 218 230 237 244 245 250 254 257 263 264 259 254 254 252 251 254 255 258 262 269 280 291 298 300 313
302 350 61 42 82 80 84 114 70 64 83 75 100 102 116 129 123 122 128 133 132 134 145 189 298 313 269 270 273 270 270 269 276 268 270 271 269 262 258 254 257 259 264 269 276 281 287 294 300
295 323 109 91 349 89 110 92 90 101 101 109 42 129 132 127 131 123 125 123 128 127 108 306 310 297 312 281 292 294 272 272 278 289 280 280 271 275 285 279 264 266 271 270 270 268 272 293 290
280 290 89 92 115 290 111 117 94 142 114 91 90 95 124 137 138 129 122 114 120 120 317 337 324 307 297 304 292 306 278 275 265 293 294 282 290 290 303 240 274 279 276 271 268 266 269 294 285
280 94 65 28 23 75 58 122 126 128 92 254 80 112 126 137 138 128 141 108 167 92 33 339 326 313 307 309 287 290 279 260 276 262 299 290 300 295 304 306 310 299 300 266 265 265 269 269 261
349 29 40 76 25 354 122 78 80 82 245 57 162 121 129 140 137 143 74 132 35 28 16 359 343 327 323 317 303 302 286 285 280 274 289 304 286 298 295 306 302 289 276 298 277 260 257 233 254
274 70 4 70 110 231 82 98 49 32 27 34 77 114 131 141 94 65 4 7 51 18 1 355 354 2 4 347 339 317 322 313 281 282 285 307 286 277 282 290 287 284 290 343 192 245 261 233 263
252 101 154 164 187 340 282 56 86 47 40 74 88 114 124 102 88 100 352 1 14 5 5 3 11 14 8 10 357 350 344 322 327 314 305 299 293 271 268 274 280 275 273 282 285 274 267 255 266
98 53 111 175 126 67 82 26 23 59 74 92 94 86 82 97 101 50 99 32 13 12 10 12 18 12 7 7 358 342 327 318 317 314 307 310 298 285 273 273 284 284 275 281 278 275 272 276 276
179 40 339 98 96 120 63 12 41 68 82 86 92 92 81 90 71 78 74 40 22 12 12 17 14 9 9 2 352 342 333 322 324 313 307 315 310 297 288 286 271 266 265 271 285 288 280 276 271
66 155 204 78 347 95 92 252 92 103 103 103 105 107 98 90 73 58 52 45 32 26 19 13 7 5 351 346 350 343 333 324 320 351 312 323 324 318 311 305 296 285 284 278 270 271 259 265 280
313 124 96 353 54 109 126 115 109 92 88 96 110 95 100 98 67 48 43 46 33 21 22 18 14 360 354 348 352 344 338 343 327 317 327 332 340 335 327 326 316 308 301 289 273 261 266 279 278
258 99 17 49 44 105 90 102 107 95 89 91 99 100 88 69 62 55 54 41 29 31 24 22 12 8 7 354 348 339 334 338 342 318 317 343 342 327 334 328 313 320 320 314 307 296 298 312 308
13 19 88 91 12 89 94 106 96 88 100 95 97 83 83 71 65 56 49 37 37 42 34 26 15 14 16 358 358 354 345 348 348 349 348 343 347 347 344 340 337 323 327 324 315 314 309 304 296
332 55 332 122 171 139 124 106 109 102 85 88 88 90 90 95 76 61 47 47 41 35 29 22 18 12 14 14 5 360 351 345 350 353 342 342 325 324 337 332 331 314 314 318 316 319 309 297 297
308 9 44 119 177 197 85 3 257 112 103 101 101 98 86 64 65 64 58 45 34 28 24 18 19 22 17 28 7 5 3 353 344 339 334 342 340 344 345 346 339 336 337 322 318 321 311 301 295
126 339 296 225 225 212 180 164 63 70 113 107 93 76 78 74 72 64 47 33 26 19 14 15 20 21 15 10 8 10 2 354 351 344 341 354 353 357 359 354 351 349 354 324 314 310 318 303 299
15 309 295 208 242 126 333 284 285 283 129 109 91 83 82 77 62 47 32 21 12 13 11 13 15 15 12 9 6 5 359 358 355 4 2 3 360 2 354 352 348 348 344 336 339 340 323 323 302
298 282 345 12 315 154 226 240 152 166 166 119 100 82 74 71 60 40 20 14 8 7 9 7 10 9 7 5 4 2 3 5 4 9 5 2 355 351 360 349 352 350 341 342 337 330 325 320 322
271 313 220 239 248 270 175 284 89 136 90 93 96 94 77 56 43 21 14 9 8 7 6 6 4 4 4 2 1 3 9 8 5 3 356 3 352 349 347 354 352 354 351 344 327 321 318 311 308
308 328 321 339 335 345 52 7 157 120 116 109 97 87 76 42 24 14 15 6 5 4 4 3 1 4 354 359 1 4 4 5 359 354 357 352 352 349 342 354 349 344 341 340 330 337 328 316 311
353 327 5 303 266 273 189 112 93 130 134 134 108 97 77 44 23 13 11 6 2 1 4 1 0 355 6 0 3 2 3 3 357 4 0 353 353 350 345 341 343 346 341 336 340 339 343 339 331
314 349 304 242 317 323 190 83 158 187 151 126 130 120 90 13 23 15 12 8 2 1 0 1 1 6 2 1 2 354 4 6 2 3 359 356 347 354 351 1 353 348 359 358 359 350 341 349 342
295 198 346 282 310 322 312 98 28 139 146 151 121 99 109 321 20 17 15 7 5 3 4 2 2 358 359 3 356 1 1 7 4 3 6 1 5 357 2 2 2 356 6 5 4 9 2 354 3
4 358 331 328 353 5 275 97 50 108 120 137 126 134 82 13 17 15 14 8 7 6 7 5 3 3 3 10 359 11 5 4 4 8 10 5 5 3 360 7 1 355 12 11 15 8 5 3 5